Location: Hilton Head Island
(32.2163°N, 80.7526°W)
Time: 01:23:02
(UTC-05:00)

Vanguard 2 Rocket - Pass Details

Date: 24 February 2026
Orbit: 553 x 3287 km, 32.9° (Epoch: 5 March)

Event Time Altitude Azimuth Distance (km) Brightness Sun altitude
Rises 12:39:04 0° 263° (W) 7,128 11.5 48.5°
Reaches altitude 10° 12:43:43 10° 264° (W) 6,203 11.3 48.5°
Maximum altitude 13:04:13 88° 356° (N) 2,960 10.3 48.0°
Drops below altitude 10° 13:18:56 10° 87° (E) 4,679 10.5 47.3°
Sets 13:21:55 0° 88° (E) 5,380 10.7 47.1°
